Tracking 28920 objects as of 26-May-2024
HD Live streaming from Space Station
objects crossing your sky now

STARLINK-31535

Track STARLINK-31535 now!
10-day predictions


NORAD ID: 59504
Int'l Code: 2024-071W
Perigee: 450.4 km
Apogee: 452.0 km
Inclination: 43.0 °
Period: 93.5 minutes
Semi major axis: 6822 km
RCS: Unknown
Launch date: April 13, 2024
Source: United States (US)
Launch site: AIR FORCE EASTERN TEST RANGE (AFETR)
Your satellite tracking list
Your tracking list is empty




NASA's NSSDC Master Catalog

Two Line Element Set (TLE):
1 59504U 24071W   24147.58334491  .00004472  00000-0  11430-3 0  9991
2 59504  43.0000 104.7671 0001163 272.7540 168.7307 15.40687086  7954
Source of the keplerian elements: AFSPC